Regional Weather Roundup
Issued by NWS Upton, NY

Current Version | Previous Version | Text Only | Print | Product List | Glossary On
Versions: 1 2 3 4 5 6 7 8 9 10 11 12 13 14 15 16 17 18 19 20 21 22 23 24 25 26 27 28 29 30 31 32 33 34 35 36 37 38 39 40 41 42 43 44 45 46 47 48 49
000 ASUS41 KOKX 060305 RWROKX REGIONAL WEATHER ROUNDUP NATIONAL WEATHER SERVICE NEW YORK NY 1000 PM EST THU MAR 05 2015 NOTE: "FAIR" INDICATES FEW OR NO CLOUDS BELOW 12,000 FEET WITH NO SIGNIFICANT WEATHER AND/OR OBSTRUCTIONS TO VISIBILITY. NYZ071-072-176-178-NJZ106-104-060400- NEW YORK CITY METRO AREA CITY SKY/WX TMP DP RH WIND PRES REMARKS CENTRAL PARK CLOUDY 21 6 52 VRB6 30.35R WCI 13 LAGUARDIA APRT CLOUDY 23 7 50 N16 30.33R WCI 10 KENNEDY INTL CLOUDY 23 7 50 NW20 30.33R WCI 8 NEWARK/LIBERTY CLOUDY 22 8 55 NW15G22 30.34R WCI 9 BRNX BOT. GARD N/A N/A N/A N/A NW9 30.35R TETERBORO CLOUDY 21 4 47 NW16G22 30.35R WCI 7 $$ NYZ177-179-078>081-060400- LONG ISLAND NEW YORK CITY SKY/WX TMP DP RH WIND PRES REMARKS FARMINGDALE CLOUDY 22 9 57 N12 30.31R WCI 10 ISLIP CLOUDY 22 9 57 N18 30.26R WCI 7 SHIRLEY CLOUDY 21 11 65 N12 30.30R WCI 9 WESTHAMPTON CLOUDY 22 13 68 NW9 30.30R WCI 12 MONTAUK POINT N/A 25 12 58 N14G21 30.27R WCI 13 $$ NYZ052-065-067-060400- HUDSON VALLEY CITY SKY/WX TMP DP RH WIND PRES REMARKS WHITE PLAINS CLOUDY 20 5 52 NW12 30.29R WCI 8 NEWBURGH CLOUDY 18 5 57 NW12 30.34R WCI 5 MONTGOMERY CLOUDY 18 1 47 NW10 30.34R WCI 6 POUGHKEEPSIE CLOUDY 20 3 48 NW10 30.35R WCI 9 ALBANY PTCLDY 14 -3 47 NW9 30.38R WCI 2 $$ NJZ001-105-106-008-010-013-015-019>022-104-060400- NEW JERSEY CITY SKY/WX TMP DP RH WIND PRES REMARKS NEWARK/LIBERTY CLOUDY 22 8 55 NW15G22 30.34R WCI 9 TETERBORO CLOUDY 21 4 47 NW16G22 30.35R WCI 7 CALDWELL CLOUDY 20 3 48 NW9G16 30.35R WCI 9 MORRISTOWN CLOUDY 21 10 63 NW9 30.35R WCI 11 SOMERVILLE CLOUDY 20 8 60 N9 30.35R WCI 9 SUSSEX CLOUDY 18 1 47 NW5 30.36R WCI 11 ANDOVER N/A 17 5 59 NW9 30.34R WCI 6 TRENTON CLOUDY 19 8 62 NW9G21 30.34R WCI 8 MILLVILLE CLOUDY 21 N/A N/A NW7 30.36R WCI 12 ATLANTIC CITY MIX PCPN 20 14 77 NW16 30.34R WCI 6 WRIGHTSTOWN NOT AVBL TOMS RIVER CLOUDY 19 16 86 NW10 30.34R WCI 8 BELMAR CLOUDY 21 10 63 NW12 30.32R WCI 9 $$ PAZ047>061-062-071-060400- EASTERN PENNSYLVANIA CITY SKY/WX TMP DP RH WIND PRES REMARKS PHILADELPHIA CLOUDY 22 13 68 N12 30.38R WCI 10 ALLENTOWN MOCLDY 18 4 54 N12 30.38R WCI 5 SCRANTON PTCLDY 13 0 56 N12 30.36R WCI -1 $$ CTZ002-004>006-009-010-012-RIZ004-006-007-MAZ004-011-015-060400- SOUTHERN NEW ENGLAND IN CT CITY SKY/WX TMP DP RH WIND PRES REMARKS BRADLEY INTL CLOUDY 22 4 46 NW13 30.30R WCI 10 HARTFORD CLOUDY 21 5 50 NW8 30.32R WCI 11 DANBURY CLOUDY 19 2 47 N7 30.32R WCI 10 WTRBRY/OXFORD CLOUDY 18 0 45 N13 30.28R WCI 4 BRIDGEPORT CLOUDY 21 6 52 N15 30.31R WCI 8 MERIDEN CLOUDY 21 5 50 NW13G20 30.32R WCI 9 NEW HAVEN CLOUDY 21 8 57 NW7 30.30R WCI 12 CHESTER FAIR 21 10 63 NW9 30.26R WCI 11 GROTON CLOUDY 21 10 62 NW13 30.28R WCI 9 WILLIMANTIC CLOUDY 22 4 46 NW12G20 30.28R WCI 10 IN RI CITY SKY/WX TMP DP RH WIND PRES REMARKS PROVIDENCE CLOUDY 22 7 52 NW10 30.27R WCI 11 BLOCK ISLAND CLOUDY 25 12 58 N9 30.25R WCI 15 WESTERLY CLOUDY 22 13 68 NW9 30.27R WCI 12 IN MA CITY SKY/WX TMP DP RH WIND PRES REMARKS BOSTON CLOUDY 20 -1 40 NW13G23 30.28R WCI 7 WORCESTER CLOUDY 17 -1 45 NW8 30.21R WCI 7 WESTFIELD CLOUDY 20 3 48 NW13 30.31R WCI 7 PROVINCETOWN CLOUDY 23 9 54 N15G22 30.24R WCI 10 NANTUCKET LGT SNOW 23 19 85 N12 30.21R FOG WCI 12 $$ ANZ330-335-338-340-345-350-353-355-060400- COASTAL MARINE OBSERVATIONS STATION/POSITION TIME SKY/WX TEMP WIND PRES VSBY WAVE AIR SEA DIR/SP/G HT/PER (UTC) (F) (DEG/KT/KT) (MB) (MI) (FT/S) NY HARB ENTRANCE 0300 26 38 320/ 19/ 25 1025.9 3/ 4 4S FIRE IS NOT AVBL 20S FIRE ISLAND 0200 36 1025.0 5/ 5 23SW MTP 0300 N/A 4/ 4 HUDSON CANYON NOT AVBL EXECUTION ROCKS NOT AVBL WESTERN LI SOUND NOT AVBL CENTRAL LI SOUND NOT AVBL EASTERN LI SOUND NOT AVBL ROBBINS REEF 0300 22 330/ 16/ 21 1025.8 $$ >>>>>>>>>>>>>>>>>>>>>>>>>>>> KEY <<<<<<<<<<<<<<<<<<<<<<<<<<< > < > SKY/WX - SKY CONDITION/PRESENT WEATHER < > TMP - TEMPERATURE IN FAHRENHEIT < > DP - DEWPOINT IN FAHRENHEIT < > RH - RELATIVE HUMIDITY IN PERCENT < > WIND - DIRECTION AND SPEED IN MPH < > PRES - MEAN SEA LEVEL PRESSURE IN INCHES OF HG < > WCI - WIND CHILL INDEX < > VSB - VISIBILITY IN MILES < > HX - HEAT INDEX < > TC - TEMPERATURE IN CELSIUS < > VRB - VARIABLE WIND DIRECTION < > < >>>>>>>>>>>>>>>>>>>>>>>>>>>> KEY <<<<<<<<<<<<<<<<<<<<<<<<<<<

USA.gov is the U.S. government's official web portal to all federal, state and local government web resources and services.